Weather observations for the past three days for
Ft. Polk - Peason Ridge
Imperial (Metric)
Date Time (cdt) Wind (mph) Vis. (mi.) Weather Sky Cond. Temperature (ºF) Relative Humidity Wind Chill (°F) Heat Index (°F) Pressure Precipitation (in)
Air Dwpt 6 hour altimeter (in) sea level (mb) 1 hr 3 hr 6 hr
Max. Min.
06 15:47 Calm 10.00 Partly Cloudy SCT048 SCT055 93.9 72 49% 102 29.87 1011.1
06 14:47 S 3 10.00 Partly Cloudy SCT045 93.9 73 51% 103 29.89 1011.7
06 13:47 Calm 10.00 Partly Cloudy FEW038 SCT046 89.1 73 59% 97 29.92 1012.7
06 12:47 Vrbl 3 10.00 A Few Clouds FEW034 87.1 73 89.1 73.9 63% 95 29.94 1013.4
06 11:47 Calm 10.00 Fair CLR 84.9 73 68% 92 29.96 1014.2
06 10:47 Vrbl 3 10.00 Fair CLR 82 75 79% 89 29.97 1014.6
06 09:47 Calm 9.00 Overcast OVC005 77 73.9 90% 78 29.97 1014.6
06 08:47 Calm 4.00 Fog/Mist OVC003 75 73.9 96% 73 29.97 1014.6
06 07:47 Calm 4.00 Fog/Mist OVC002 73.9 73.9 100% 29.96 1014.2
06 06:47 Calm 7.00 Overcast OVC004 73.9 73.9 75 73 100% 29.94 1013.5
06 05:47 Calm 7.00 Overcast OVC003 73.9 73.9 100% 29.92 1012.9
06 04:47 Calm 0.50 Fog VV002 73.9 73.9 100% 29.91 1012.7
06 03:47 Calm 0.75 Fog/Mist VV002 73.9 73.9 100% 29.9 1012.3
06 02:47 Calm 1.50 Fog/Mist OVC002 73.9 73.9 100% 29.9 1012.2
06 01:47 Calm 1.00 Fog/Mist OVC002 73.9 73.9 100% 29.91 1012.4
06 00:47 Calm 7.00 A Few Clouds FEW002 73 72 75.9 73 96% 29.91 1012.6
05 23:47 Calm 6.00 Fog/Mist SCT002 73 72 96% 29.91 1012.5
05 22:47 Calm 7.00 A Few Clouds FEW001 73 73 100% 29.87 1011.2
05 21:47 Calm 7.00 Partly Cloudy SCT008 73.9 73 97% 29.88 1011.6
05 20:47 Calm 8.00 Overcast OVC006 73.9 73.9 100% 29.9 1012.0
05 19:47 Calm 10.00 Fair CLR 75 73.9 96% 73 29.91 1012.5
05 18:47 Calm 10.00 Partly Cloudy SCT110 75.9 73.9 93.9 73.9 94% 75 29.91 1012.6 1.32
05 17:47 Calm 10.00 Fair CLR 75.9 75 97% 75 29.9 1012.3
05 16:47 Vrbl 5 8.00 Mostly Cloudy FEW004 FEW042 BKN065 73.9 73.9 100% 29.9 1012.2
05 15:47 Vrbl 5 5.00 Light Rain Fog/Mist SCT019 BKN045 OVC080 75 73.9 96% 73 29.9 1012.1 1.32 1.32
05 14:47 S 5 10.00 Mostly Cloudy SCT049 BKN065 BKN120 91 73.9 57% 101 29.88 1011.3
05 12:47 Vrbl 6 10.00 Fair CLR 91.9 71.1 93 75 51% 99 29.92 1012.6
05 11:47 Vrbl 5 10.00 Fair CLR 89.1 73.9 61% 98 29.95 1013.7
05 10:47 Vrbl 6 10.00 Mostly Cloudy BKN055 88 75 66% 98 29.96 1013.9
05 09:47 Vrbl 3 10.00 Mostly Cloudy BKN055 84 75.9 77% 93 29.96 1014.2
05 08:47 Calm 9.00 Overcast SCT050 BKN060 OVC075 80.1 75.9 87% 85 29.96 1014.2
05 07:47 Calm 7.00 Mostly Cloudy BKN060 77 75 94% 78 29.96 1014.0
05 06:47 Calm 7.00 Fair CLR 75 73.9 77 75 96% 73 29.94 1013.4
05 05:47 Calm 7.00 Fair CLR 75 73.9 96% 73 29.93 1013.1
05 04:47 Calm 7.00 Fair CLR 75 73.9 96% 73 29.92 1012.8
05 03:47 Calm 9.00 Fair CLR 75.9 73.9 94% 75 29.92 1012.8
05 02:47 Calm 10.00 Fair CLR 75.9 73.9 94% 75 29.92 1012.8
05 01:47 Calm 10.00 Fair CLR 77 73.9 90% 78 29.93 1012.9
05 00:47 Calm 10.00 Fair CLR 77 73.9 87.1 75.9 90% 78 29.93 1013.0
04 23:47 Calm 10.00 Fair CLR 77 73.9 90% 78 29.94 1013.4
04 22:47 Calm 10.00 Fair CLR 79 73.9 85% 83 29.95 1013.7
04 21:47 Calm 10.00 Fair CLR 79 73.9 85% 83 29.94 1013.6
04 20:47 Calm 10.00 Fair CLR 79 75 88% 83 29.93 1013.1
04 19:47 Calm 10.00 Fair CLR 82 75 79% 89 29.92 1012.7
04 18:47 Calm 10.00 Fair CLR 87.1 73 96.1 86 63% 95 29.92 1012.8
04 17:47 Calm 10.00 Fair CLR 86 73 65% 93 29.9 1012.1
04 16:47 Calm 10.00 A Few Clouds FEW060 FEW095 91 72 54% 99 29.89 1011.8
04 15:47 Calm 10.00 Fair CLR 95 69.1 43% 101 29.9 1012.0
04 14:47 Vrbl 3 10.00 A Few Clouds FEW085 93.9 69.1 44% 99 29.93 1013.0
04 13:47 Vrbl 3 10.00 Mostly Cloudy FEW060 BKN090 93 71.1 49% 100 29.95 1013.9
04 12:47 Vrbl 3 10.00 A Few Clouds FEW046 90 71.1 91.9 71.1 54% 96 29.97 1014.6
04 11:47 Vrbl 5 10.00 Mostly Cloudy BKN038 89.1 72 57% 96 29.99 1015.3
04 10:47 Calm 10.00 Fair CLR 87.1 73 63% 95 30 1015.5
04 09:47 Calm 10.00 Fair CLR 84 73.9 72% 91 30 1015.4
04 08:47 Calm 9.00 Fair CLR 80.1 75 85% 85 29.99 1015.3
04 07:47 Calm 4.00 Fog/Mist CLR 72 71.1 97% 29.98 1015.0
04 06:47 Calm 5.00 Fog/Mist CLR 71.1 70 73 71.1 96% 29.97 1014.5
04 05:47 Calm 5.00 Fog/Mist CLR 71.1 71.1 100% 29.96 1014.2
04 04:47 Calm 6.00 Fog/Mist CLR 72 72 100% 29.96 1014.1
04 03:47 Calm 5.00 Fog/Mist CLR 72 72 100% 29.95 1013.7
04 02:47 Calm 5.00 Fog/Mist CLR 73 73 100% 29.95 1013.7
04 01:47 Calm 6.00 Fog/Mist CLR 73 73 100% 29.95 1013.7
04 00:47 Calm 5.00 Fog/Mist CLR 73 73 82.9 73 100% 29.94 1013.5
03 23:47 Calm 7.00 Fair CLR 73.9 73 97% 29.93 1013.2
03 22:47 Calm 9.00 Fair CLR 73.9 73 97% 29.94 1013.3
03 21:47 Calm 9.00 Fair CLR 75 73 94% 73 29.93 1013.2
03 20:47 Calm 10.00 Fair CLR 75.9 73.9 94% 75 29.93 1013.3
03 19:47 Calm 10.00 Fair CLR 79 73.9 85% 83 29.92 1012.9
03 18:47 Calm 10.00 Fair CLR 82.9 73 91 82 72% 89 29.91 1012.4
03 17:47 Vrbl 3 10.00 Fair CLR 84 72 67% 90 29.92 1012.8
03 16:47 Calm 10.00 Fair CLR 84 73 70% 90 29.93 1013.2
Date Time (cdt) Wind (mph) Vis. (mi.) Weather Sky Cond. Air Dwpt Max. Min. Relative Humidity Wind Chill (°F) Heat Index (°F) altimeter (in) sea level (mb) 1 hr 3 hr 6 hr
6 hour
Temperature (ºF) Pressure Precipitation (in)